Tracking 19796 objects as of 19-Jul-2019
HD Live streaming from Space Station
objects crossing your sky now

APRIZESAT 5

Track APRIZESAT 5 now!
10-day predictions
APRIZESAT 5 is classified as:


NORAD ID: 37792
Int'l Code: 2011-044E
Perigee: 609.8 km
Apogee: 692.7 km
Inclination: 98.4 °
Period: 97.6 minutes
Semi major axis: 7022 km
RCS: 0.107 m2 (medium)
Launch date: August 17, 2011
Source: United States (US)
Launch site: Orenburg, Russia (OREN)
aabbcc
Your satellite tracking list
Your tracking list is empty




NASA's NSSDC Master Catalog

Two Line Element Set (TLE):
1 37792U 11044E   19200.47218236  .00000004  00000-0  90276-5 0  9996
2 37792  98.4171  20.8982 0058995 146.7003 213.7939 14.75326722426258
Source of the keplerian elements: AFSPC